Regional Weather Roundup
Issued by NWS

Home | Current Version | Previous Version | Graphics & Text | Print | Product List | Glossary Off
Versions: 1 2 3 4 5 6 7 8 9 10 11 12 13 14 15 16 17 18 19 20 21 22 23 24 25 26 27 28 29 30 31 32 33 34 35 36 37 38 39 40 41 42 43 44 45 46 47 48 49 50

000
ASUS43 KLSX 312057
RWRMO

WEATHER SUMMARY FOR MISSOURI
NATIONAL WEATHER SERVICE SPRINGFIELD MO
400 PM CDT MON AUG 31 2015

NOTE: "FAIR" INDICATES FEW OR NO CLOUDS BELOW 12,000 FEET WITH NO
       SIGNIFICANT WEATHER AND/OR OBSTRUCTIONS TO VISIBILITY.
       CURRENT SKY AND/OR WEATHER CONDITIONS ARE NOT AVAILABLE FOR
       CHILLICOTHE AND FARMINGTON.

MOZ001>031-035>038-043-044-053-054-312200-
...NORTHERN AND WESTERN MISSOURI...

CITY           SKY/WX    TMP DP  RH WIND       PRES   REMARKS
KANSAS CTY INT FAIR      90  67  46 S13       29.95F HX  93
LEE`S SUMMIT   FAIR      88  67  49 S9        29.97F HX  91
ST JOSEPH      FAIR      88  69  53 S12       29.93F HX  92

$$
MOZ066>068-077>081-088>096-101>105-312200-
...SOUTHWEST MISSOURI...

CITY           SKY/WX    TMP DP  RH WIND       PRES   REMARKS
SPRINGFIELD    FAIR      88  68  51 S12       30.02F HX  91

$$
MOZ032>034-039>042-045>050-055>058-069>072-312200-
...CENTRAL MISSOURI...

CITY           SKY/WX    TMP DP  RH WIND       PRES   REMARKS
COLUMBIA       NOT AVBL
JEFFERSON CITY FAIR      92  66  42 S8        29.97F HX  94
ROLLA          FAIR      90  69  50 SW9       30.01F HX  94
SEDALIA        FAIR      93  64  38 S13       29.99F HX  94
WARRENSBURG    FAIR      90  64  43 S9        29.96F HX  91

$$
MOZ051-052-059>065-312200-
...EAST CENTRAL MISSOURI...

CITY           SKY/WX    TMP DP  RH WIND       PRES   REMARKS
ST LOUIS INTL  PTSUNNY   90  70  51 VRB6      30.01F HX  95

$$
MOZ072>076-082>087-097>100-106>115-312200-
...SOUTH CENTRAL AND SOUTHEAST MISSOURI...

CITY           SKY/WX    TMP DP  RH WIND       PRES   REMARKS
CAPE GIRARDEAU PTSUNNY   86  70  58 SE6       30.04F HX  90
POPLAR BLUFF   FAIR      88  71  57 S7        30.03F HX  94
WEST PLAINS    PTSUNNY   87  66  49 S9        30.07F

$$



USA.gov is the U.S. government's official web portal to all federal, state and local government web resources and services.